Regional Weather Roundup
Issued by NWS Wilmington, NC

Home | Current Version | Previous Version | Text Only | Print | Product List | Glossary On
Versions: 1 2 3 4 5 6 7 8 9 10 11 12 13 14 15 16 17 18 19 20 21 22 23 24 25 26 27
000
ASUS42 KILM 191313
RWRILM
RWRILM
REGIONAL HOURLY WEATHER ROUNDUP
NATIONAL WEATHER SERVICE WILMINGTON NC
900 AM EDT TUE SEP 19 2017

NOTE: "FAIR" INDICATES FEW OR NO CLOUDS BELOW 12,000 FEET WITH NO
SIGNIFICANT WEATHER AND/OR OBSTRUCTIONS TO VISIBILITY.

...............WFO WILMINGTON COUNTY WARNING AREA...............

......COASTAL NC AND SC COUNTIES......

CITY           SKY/WX    TMP DP  RH WIND       PRES   REMARKS
WILMINGTON     SUNNY     72  67  84 NW12      29.96R
N MYRTLE BEACH SUNNY     73  68  84 N7        29.97R
MYRTLE BEACH   SUNNY     73  67  81 N6        30.00R

......INLAND NC AND SC COUNTIES.......

CITY           SKY/WX    TMP DP  RH WIND       PRES   REMARKS
LUMBERTON      SUNNY     71  68  90 N7        29.99R
ELIZABETHTOWN  NOT AVBL
WHITEVILLE     MOSUNNY   70  67  89 CALM      29.98R
FLORENCE       SUNNY     71  67  87 N7        30.01R
DARLINGTON     SUNNY     70  67  90 N8        30.02R
KINGSTREE      FAIR      70  68  94 CALM      30.01R
HARTSVILLE     FAIR      70  64  83 N6        30.02R
BENNETTSVILLE  FAIR      72  70  94 NW5       30.01S
CONWAY         FAIR      70  68  94 N5        29.99S
GEORGETOWN     FAIR      70  68  94 NW3       30.01R
MARION         FAIR      68  64  88 N3        30.00S FOG

....................REST OF NORTH CAROLINA......................

.........EASTERN NC.........

CITY           SKY/WX    TMP DP  RH WIND       PRES   REMARKS
CAPE HATTERAS  LGT RAIN  72  70  93 N10G23    29.82R
JACKSONVILLE   CLOUDY    69  66  90 N7        29.97R
MOREHEAD CITY  MOSUNNY   71  69  93 NW15      29.90R
KENANSVILLE    CLOUDY    68  66  94 NW6       29.97R
NEW BERN       MOSUNNY   72  67  84 NW10G18   29.93S
ELIZABETH CITY LGT RAIN  72  70  93 NW15      29.86S

.........CENTRAL NC.........

CITY           SKY/WX    TMP DP  RH WIND       PRES   REMARKS
RALEIGH DURHAM MOSUNNY   69  66  90 N8        30.01R
ROCKY MOUNT    CLOUDY    69  67  93 NW9       29.97R
ROANOKE RAPIDS NOT AVBL
FAYETTEVILLE   MOSUNNY   71  67  87 N9        29.98S
HOFFMAN        SUNNY     70  67  89 NW6       30.01R

.........WESTERN NC.........

CITY           SKY/WX    TMP DP  RH WIND       PRES   REMARKS
CHARLOTTE      MOSUNNY   71  68  90 N7        30.05R
GREENSBORO     MOSUNNY   70  67  90 N6        30.04S
HICKORY        NOT AVBL
BOONE          NOT AVBL
ASHEVILLE      NOT AVBL

.....................REST OF SOUTH CAROLINA.....................

.........EASTERN SC.........

CITY           SKY/WX    TMP DP  RH WIND       PRES   REMARKS
CHARLESTON     SUNNY     75  70  84 CALM      30.00R
BEAUFORT MCAS  SUNNY     76  71  85 NW6       30.01R
HILTON HEAD    SUNNY     77  72  83 CALM      30.01R

.........CENTRAL SC.........

CITY           SKY/WX    TMP DP  RH WIND       PRES   REMARKS
COLUMBIA       PTSUNNY   74  66  76 SE3       30.02R
ORANGEBURG     CLOUDY    72  66  81 CALM      30.02R
SUMTER SHAW    SUNNY     72  65  79 NE5       30.00R

.........WESTERN SC.........

CITY           SKY/WX    TMP DP  RH WIND       PRES   REMARKS
GREENVILLE     NOT AVBL
ROCK HILL        N/A    N/A N/A N/A MISG      30.06R
ANDERSON       MOSUNNY   72  66  81 NE7       30.04R
CLEMSON        NOT AVBL
GREENWOOD      CLOUDY    69  68  96 NE6       30.06R


...................COASTAL AND OFFSHORE REPORTS..................

................LOCAL PIERS AND NC RESERVE................


STATION/POSITION TIME  SKY/WX   TEMP    WIND        PRES    VSBY
                                AIR SEA DIR/SP/G
                 (UTC)          (F)     (DEG/KT/KT) (MB)    (MI)
JOHNY MRCER PIER 1236            71 79  330/ 11/ 15 1013.2R
NC RESRV MASNBRO 1145            68     210/  1     1014.0
OCEAN CREST PIER NOT AVBL
SPRINGMAID  PIER 1236                               1014.6R


................COASTAL AND OFFSHORE BUOYS................


STATION/POSITION TIME  SKY/WX   TEMP    WIND        PRES    VSBY
                                AIR SEA DIR/SP/G
                 (UTC)          (F)     (DEG/KT/KT) (MB)    (MI)
DIMNDSHOAL 41025 1250            72 76  340/ 25/ 31 1008.5R
WVE H/P(F/S)= 11/11 SWL H/P/D(F/S/D)=  8/ 80/11

CAPE LOOKOUT     1300            71     310/ 17/ 20 1012.0R
ONSLOW BAY 41036 NOT AVBL
ONSLOW BAY 41064 1208            73     330/ 17/ 23 1012.4
ONSLOW BAY 41159 NOT AVBL
MASNBO INL 41110 1259               78                N/A
WVE H/P(F/S)=  4/13 SWL H/P/D(F/S/D)=  3/110/13

WILM HARBR 41108 1300               80                N/A
WVE H/P(F/S)=  3/13 SWL H/P/D(F/S/D)=  2/120/13

27SE WRITB 41037 1208            73 79  340/ 16/ 21 1013.2R
FRYING PAN 41013 1250            73 81  330/ 12/ 16 1013.7R
WVE H/P(F/S)=  5/12 SWL H/P/D(F/S/D)=  3/ 70/12

SUNST NRSH 41024 1208            71 78   10/ 10/ 12 1014.3R
CAPRS NRSH 41029 1208            74 79   10/  6/ 10 1014.9R
EDISTO     41004 1250            77 82  350/  8/ 10 1014.7R
WVE H/P(F/S)=  6/11 SWL H/P/D(F/S/D)=  7/ 80/11



..........OFFSHORE BUOYS BEYOND 100 NM OFFSHORE...........
.....IN A TRIANGLE---HAT TO BERMUDA TO BAHAMAS TO HAT.....


STATION/POSITION TIME  SKY/WX   TEMP    WIND        PRES    VSBY
                                AIR SEA DIR/SP/G
                 (UTC)          (F)     (DEG/KT/KT) (MB)    (MI)
150E HAT   41001 NOT AVBL
W BERMUDA  41048 1300            80 78  240/ 17/ 21 1012.3
ATLANTIC S 41049 1250            83 83  150/ 12/ 14 1018.1R
WVE H/P(F/S)=  6/10 SWL H/P/D(F/S/D)=  5/270/10

E BAHAMAS  41046 1250            83 84  140/  6/  8 1015.8R
WVE H/P(F/S)=  5/12 SWL H/P/D(F/S/D)=  5/140/12

NE BAHAMAS 41047 1300            81 80  130/  2/  6 1015.3
120E CANVRL41010 1250               84   10/  4/  8 1014.5R
WVE H/P(F/S)=  8/12 SWL H/P/D(F/S/D)=  8/12


END




USA.gov is the U.S. government's official web portal to all federal, state and local government web resources and services.